Mount Laurel, NJ

2:50 PM EST on February 23, 2017 (GMT -0500)
South Jersey Regional

Weather History for KVAY - February, 2014

Change the Weather History Date:

Friday, February 14, 2014

  Actual Average (KPNE) Record (KPNE)
Temperature  
Mean Temperature 34 °F -  
Max Temperature 43 °F 41 °F 59 °F (2011)
Min Temperature 25 °F 25 °F 7 °F (2016)
Degree Days  
Heating Degree Days 30    
Moisture  
Dew Point 26 °F    
Average Humidity 77    
Maximum Humidity 93    
Minimum Humidity 43    
Precipitation  
Precipitation 0.00 in - - ()
Sea Level Pressure  
Sea Level Pressure 29.38 in    
Wind  
Wind Speed 13 mph (West)    
Max Wind Speed 22 mph    
Max Gust Speed 34 mph    
Visibility 6 miles    
Events Fog , Snow    
Averages and records for this station are not official NWS values.
T = Trace of Precipitation, MM = Missing Value Source: NWS Daily Summary

Daily Weather History Graph

Daily Weather History Graph

Search for Another Location

Airport or City:

Trip Planner

Search our weather history database for the weather conditions in past years. The results will help you decide how hot, cold, wet, or windy it might be!

Date:

Astronomy

Feb. 14, 2014 Rise Set
Actual Time 6:53 AM EST 5:34 PM EST
Civil Twilight 6:25 AM EST 6:02 PM EST
Nautical Twilight 5:53 AM EST 6:33 PM EST
Astronomical Twilight 5:22 AM EST 7:05 PM EST
Moon 5:35 PM EST (2/14) 6:19 AM EST (2/14)
Length of Visible Light 11h 36m
Length of Day
10h 40m
Full, 100% of the Moon is Illuminated
Feb 14
Full
Feb 14
Full
Feb 22
Last Quarter
Mar 1
New
Mar 8
First Quarter

Hourly Weather History & Observations

Time (EST) Temp. Windchill Dew Point Humidity Pressure Visibility Wind Dir Wind Speed Gust Speed Precip Events Conditions
12:02 AM 32.0 °F 23.0 °F 30.0 °F 92% 29.13 in 1.2 mi WNW 11.5 mph 20.7 mph 0.00 in Snow Light Snow
12:06 AM 32.0 °F 22.5 °F 30.0 °F 92% 29.13 in 0.8 mi WNW 12.7 mph 21.9 mph 0.00 in Snow Light Snow
12:24 AM 32.0 °F 22.5 °F 30.0 °F 92% 29.14 in 0.5 mi WNW 12.7 mph 24.2 mph 0.00 in Fog , Snow Snow
12:52 AM 32.0 °F 22.1 °F 30.2 °F 93% 29.15 in 1.0 mi WNW 13.8 mph 20.7 mph 0.00 in Snow Light Snow
12:54 AM 32.0 °F 23.0 °F 30.0 °F 92% 29.16 in 1.2 mi WNW 11.5 mph 20.7 mph 0.00 in Snow Light Snow
1:03 AM 32.0 °F 21.6 °F 30.0 °F 92% 29.16 in 2.5 mi West 15.0 mph 21.9 mph 0.00 in Snow Light Snow
1:09 AM 32.0 °F 22.1 °F 30.0 °F 92% 29.16 in 1.8 mi WNW 13.8 mph 24.2 mph 0.00 in Snow Light Snow
1:19 AM 32.0 °F 21.2 °F 30.0 °F 92% 29.17 in 1.0 mi WNW 16.1 mph 24.2 mph 0.00 in Snow Light Snow
1:28 AM 32.0 °F 23.0 °F 30.0 °F 92% 29.18 in 1.2 mi West 11.5 mph 24.2 mph 0.00 in Snow Light Snow
1:35 AM 32.0 °F 21.2 °F 28.9 °F 88% 29.18 in 2.5 mi WNW 16.1 mph 26.5 mph 0.00 in Snow Light Snow
1:54 AM 32.0 °F 22.5 °F 28.9 °F 88% 29.19 in 4.0 mi WNW 12.7 mph 23.0 mph 0.00 in Snow Light Snow
2:05 AM 32.0 °F 21.6 °F 28.9 °F 88% 29.19 in 3.0 mi West 15.0 mph 24.2 mph 0.00 in Snow Light Snow
2:11 AM 30.9 °F 20.2 °F 28.9 °F 92% 29.19 in 1.8 mi West 15.0 mph 24.2 mph 0.00 in Snow Light Snow
2:19 AM 30.9 °F 21.7 °F 28.9 °F 92% 29.19 in 0.8 mi WNW 11.5 mph 24.2 mph 0.00 in Snow Light Snow
2:25 AM 30.9 °F 20.2 °F 28.9 °F 92% 29.19 in 0.8 mi West 15.0 mph 24.2 mph 0.00 in Snow Light Snow
2:32 AM 30.9 °F 19.8 °F 28.9 °F 92% 29.20 in 0.8 mi West 16.1 mph 25.3 mph 0.00 in Snow Light Snow
2:36 AM 30.9 °F 19.4 °F 28.9 °F 92% 29.20 in 1.0 mi West 17.3 mph 25.3 mph 0.00 in Snow Light Snow
2:40 AM 30.9 °F 20.2 °F 28.9 °F 92% 29.20 in 1.2 mi West 15.0 mph 25.3 mph 0.00 in Snow Light Snow
2:54 AM 30.9 °F 19.8 °F 28.9 °F 92% 29.21 in 1.8 mi West 16.1 mph 24.2 mph 0.00 in Snow Light Snow
3:04 AM 30.9 °F 20.7 °F 28.9 °F 92% 29.21 in 2.5 mi West 13.8 mph 27.6 mph 0.00 in Snow Light Snow
3:13 AM 32.0 °F 21.6 °F 28.0 °F 85% 29.22 in 6.0 mi West 15.0 mph 25.3 mph 0.00 in Snow Light Snow
3:54 AM 33.1 °F 22.2 °F 27.0 °F 78% 29.24 in 10.0 mi West 17.3 mph 29.9 mph 0.00 in   Partly Cloudy
4:54 AM 34.0 °F 23.0 °F 28.0 °F 79% 29.30 in 10.0 mi West 18.4 mph 26.5 mph N/A   Mostly Cloudy
5:46 AM 34.0 °F 25.5 °F 28.0 °F 79% 29.33 in 10.0 mi West 11.5 mph 34.5 mph N/A   Mostly Cloudy
5:54 AM 34.0 °F 23.4 °F 28.0 °F 79% 29.34 in 10.0 mi West 17.3 mph 24.2 mph N/A   Scattered Clouds
6:54 AM 34.0 °F 24.6 °F 25.0 °F 70% 29.39 in 10.0 mi West 13.8 mph - N/A   Clear
7:54 AM 33.1 °F 23.9 °F 23.0 °F 66% 29.44 in 10.0 mi West 12.7 mph - N/A   Clear
8:54 AM 34.0 °F 24.6 °F 19.0 °F 54% 29.49 in 10.0 mi West 13.8 mph 24.2 mph N/A   Clear
9:54 AM 36.0 °F 28.0 °F 21.0 °F 55% 29.52 in 10.0 mi WSW 11.5 mph 23.0 mph N/A   Clear
10:54 AM 39.0 °F 29.0 °F 21.9 °F 50% 29.53 in 10.0 mi WSW 20.7 mph 31.1 mph N/A   Clear
11:54 AM 41.0 °F 32.5 °F 23.0 °F 49% 29.55 in 10.0 mi West 17.3 mph 26.5 mph N/A   Partly Cloudy
12:54 PM 42.1 °F 32.8 °F 23.0 °F 47% 29.56 in 10.0 mi West 21.9 mph 32.2 mph N/A   Mostly Cloudy
1:54 PM 42.1 °F 34.9 °F 24.1 °F 49% 29.58 in 10.0 mi West 13.8 mph 25.3 mph N/A   Partly Cloudy
2:54 PM 43.0 °F 35.4 °F 23.0 °F 45% 29.59 in 10.0 mi West 16.1 mph 24.2 mph N/A   Partly Cloudy
3:54 PM 43.0 °F 36.4 °F 21.9 °F 43% 29.62 in 10.0 mi West 12.7 mph 23.0 mph N/A   Clear
4:54 PM 42.1 °F 36.1 °F 21.9 °F 45% 29.66 in 10.0 mi West 10.4 mph - N/A   Clear
5:54 PM 41.0 °F 34.7 °F 21.9 °F 47% 29.69 in 10.0 mi West 10.4 mph - N/A   Clear
6:54 PM 37.9 °F 34.4 °F 23.0 °F 55% 29.75 in 10.0 mi WSW 4.6 mph - N/A   Clear
7:54 PM 30.9 °F 27.5 °F 23.0 °F 72% 29.77 in 10.0 mi SSE 3.5 mph - N/A   Clear
8:54 PM 30.0 °F - 23.0 °F 75% 29.78 in 10.0 mi Calm Calm - N/A   Clear
9:54 PM 27.0 °F - 21.9 °F 81% 29.78 in 10.0 mi Calm Calm - N/A   Clear
10:54 PM 26.1 °F - 21.0 °F 81% 29.78 in 8.0 mi Calm Calm - N/A   Mostly Cloudy
11:54 PM 25.0 °F - 21.0 °F 85% 29.80 in 7.0 mi Calm Calm - N/A   Scattered Clouds